Date,TemperatureHighF,TemperatureAvgF,TemperatureLowF,DewpointHighF,DewpointAvgF,DewpointLowF,HumidityHigh,HumidityAvg,HumidityLow,PressureMaxIn,PressureMinIn,WindSpeedMaxMPH,WindSpeedAvgMPH,GustSpeedMaxMPH,PrecipitationSumIn
2013-1-1,45.1,40.9,37.2,29.0,27.0,23.0,65,58,53,30.00,29.89,4,0,0,0.00
2013-1-2,38.0,32.7,25.6,26.0,17.7,12.0,73,55,38,30.23,29.99,4,1,0,0.00
2013-1-3,38.3,29.2,21.8,20.0,17.1,15.0,84,62,38,30.25,30.13,2,0,0,0.00
2013-1-4,43.3,34.6,25.1,23.0,20.0,18.0,78,57,41,30.19,30.08,9,2,0,0.00
2013-1-5,43.9,36.7,29.4,30.0,22.5,19.0,78,58,41,30.37,30.12,3,0,0,0.00
2013-1-6,52.0,42.3,28.8,34.0,29.2,26.0,94,64,37,30.18,30.00,4,1,0,0.01
2013-1-7,49.6,39.5,26.6,29.0,26.0,22.0,83,60,41,30.41,30.11,6,1,0,0.00
2013-1-8,52.9,37.2,23.9,34.0,28.2,21.0,90,73,43,30.41,30.34,5,1,0,0.00
2013-1-9,51.1,40.4,28.2,41.0,33.8,26.0,92,79,51,30.36,30.20,3,0,0,0.00
2013-1-10,54.4,43.9,33.1,31.0,28.4,26.0,76,56,35,30.57,30.34,4,0,0,0.00
2013-1-11,45.5,39.9,32.4,43.0,35.6,29.0,96,85,70,30.49,30.08,3,0,0,0.14
2013-1-12,58.0,46.1,40.9,47.0,42.9,39.0,96,89,66,30.16,30.08,2,0,0,0.00
2013-1-13,50.2,45.2,38.9,49.0,33.1,-99.9,97,89,94,30.14,29.96,4,0,0,0.03
2013-1-14,56.7,49.8,41.1,55.0,-23.2,-99.9,100,40,56,30.29,29.94,3,0,0,0.16
2013-1-15,41.1,39.0,35.8,39.0,37.1,34.0,95,93,87,30.33,30.15,4,0,0,0.67
2013-1-16,40.6,38.0,34.9,39.0,36.6,34.0,95,95,94,30.14,29.83,4,0,0,0.43
2013-1-17,44.9,40.6,37.6,40.0,34.4,30.0,95,79,60,30.12,29.95,3,0,0,0.00
2013-1-18,37.8,33.2,25.3,30.0,17.7,7.0,75,55,29,30.49,30.03,5,1,0,0.00
2013-1-19,55.1,40.6,28.7,27.0,23.9,16.0,73,53,30,30.41,29.95,7,1,0,0.00
2013-1-20,59.5,45.8,32.5,31.0,22.1,10.0,63,41,22,30.07,29.79,12,2,0,0.00
2013-1-21,42.9,34.2,29.1,30.0,18.7,10.0,67,53,42,30.11,29.79,6,1,0,0.00
2013-1-22,29.5,21.7,16.1,10.0,-2.2,-8.0,48,36,26,30.29,29.90,10,2,0,0.00
2013-1-23,26.4,20.3,12.9,5.0,-1.3,-4.0,57,40,28,30.34,30.15,7,1,0,0.00
2013-1-24,27.5,20.4,13.1,15.0,7.1,-1.0,84,59,30,30.50,30.10,9,1,0,0.08
2013-1-25,24.1,18.4,11.2,17.0,8.2,0.0,87,66,37,30.49,30.06,4,0,0,0.00
2013-1-26,34.4,25.6,18.0,20.0,17.1,14.0,85,71,50,30.41,30.07,4,0,0,0.07
2013-1-27,37.9,26.5,17.3,23.0,17.6,14.0,87,72,42,30.59,30.43,4,0,0,0.00
2013-1-28,39.9,34.3,27.5,37.0,31.0,23.0,95,88,71,30.50,30.03,4,0,0,0.17
2013-1-29,65.6,46.4,30.9,49.0,40.8,30.0,96,82,55,30.12,29.98,4,1,0,0.01
2013-1-30,69.1,56.4,44.9,60.0,52.5,43.0,96,87,72,29.98,29.25,11,2,0,0.55
2013-1-31,59.9,43.8,28.2,59.0,26.2,9.0,96,52,29,29.90,29.14,14,4,0,0.68
2013-2-1,31.6,26.8,20.2,26.0,11.0,3.0,88,53,35,30.36,29.81,12,2,0,0.04
2013-2-2,31.3,24.6,15.1,25.0,10.8,4.0,88,58,34,30.37,30.01,3,1,0,0.00
2013-2-3,37.0,28.9,20.3,28.0,23.9,16.0,92,82,55,30.01,29.82,6,0,0,0.02
2013-2-4,36.0,30.0,22.9,24.0,14.2,9.0,71,53,39,30.09,29.89,5,1,0,0.00
2013-2-5,37.8,33.4,28.8,29.0,26.9,24.0,86,77,63,29.93,29.84,3,0,0,0.00
2013-2-6,46.7,36.1,27.3,32.0,25.6,20.0,92,68,43,30.35,29.92,6,1,0,0.00
2013-2-7,38.8,32.1,23.6,28.0,22.9,19.0,84,70,51,30.45,30.20,5,1,0,0.00
2013-2-8,42.1,37.4,33.1,41.0,33.5,23.0,95,86,62,30.20,29.70,10,1,0,0.28
2013-2-9,41.1,32.9,26.6,22.0,16.6,14.0,63,52,39,30.37,29.86,10,2,0,0.00
2013-2-10,43.9,32.1,19.1,30.0,16.2,5.0,85,56,21,30.48,30.25,10,1,0,0.00
2013-2-11,54.8,45.4,36.8,50.0,42.6,30.0,96,90,69,30.25,29.67,6,1,0,0.42
2013-2-12,56.0,46.2,34.6,35.0,28.7,25.0,78,53,33,29.98,29.78,7,1,0,0.00
2013-2-13,46.2,35.4,27.0,35.0,29.6,25.0,95,81,55,29.95,29.65,3,0,0,0.19
2013-2-14,36.3,32.3,29.4,34.0,31.1,28.0,96,95,91,29.97,29.74,2,0,0,0.06
2013-2-16,34.6,31.9,32.5,24.0,15.7,-99.9,67,59,51,29.85,0.00,4,-49,0,0.00
2013-2-17,34.0,28.5,24.4,15.0,9.6,5.0,59,45,36,30.16,29.90,9,3,0,0.00
2013-2-18,41.6,30.1,20.0,27.0,10.5,4.0,78,46,23,30.36,30.16,6,1,0,0.00
2013-2-19,45.4,39.7,32.2,41.0,30.8,20.0,88,72,48,30.16,29.70,5,1,0,0.08
2013-2-20,38.9,32.7,25.1,21.0,14.4,8.0,56,47,38,30.13,29.82,10,2,0,0.00
2013-2-21,40.5,30.3,22.9,17.0,13.0,10.0,60,50,37,30.31,30.10,10,2,0,0.00
2013-2-22,34.7,31.7,27.8,31.0,22.4,15.0,92,69,58,30.39,30.21,4,0,0,0.01
2013-2-23,45.7,39.6,32.9,45.0,38.5,31.0,96,95,92,30.21,29.78,3,0,0,0.12
2013-2-24,53.2,42.8,32.2,42.0,31.5,20.0,95,68,34,30.08,29.77,6,2,0,0.00
2013-2-25,49.1,36.6,27.9,28.0,22.8,18.0,83,59,38,30.21,30.08,5,0,0,0.00
2013-2-26,43.8,36.5,26.3,43.0,32.5,22.0,96,85,67,30.21,29.61,9,2,0,0.73
2013-2-27,55.7,47.6,41.6,44.0,37.1,-99.9,98,73,50,29.68,29.48,12,2,0,0.05
2013-2-28,49.1,43.4,39.9,39.0,30.4,22.0,92,62,36,29.71,29.61,6,1,0,0.02
2013-3-1,46.4,41.4,34.7,31.0,28.0,23.0,72,60,50,29.84,29.69,5,1,0,0.00
2013-3-2,39.6,34.8,30.4,24.0,21.7,19.0,72,60,50,29.85,29.78,5,1,0,0.00
2013-3-3,39.2,33.6,29.1,21.0,19.1,17.0,68,56,47,29.87,29.77,11,2,0,0.00
2013-3-4,44.3,35.0,27.5,20.0,16.8,14.0,66,48,36,30.00,29.88,9,2,0,0.00
2013-3-5,49.4,36.3,22.7,30.0,21.7,17.0,80,58,31,30.07,29.83,7,1,0,0.00
2013-3-6,40.8,37.7,34.1,36.0,33.6,27.0,94,86,63,29.94,29.61,14,4,0,0.86
2013-3-7,51.7,42.6,34.4,29.0,26.3,23.0,73,54,38,30.12,29.95,7,1,0,0.00
2013-3-8,50.7,42.2,34.0,27.0,24.5,22.0,69,50,40,30.23,30.09,9,2,0,0.00
2013-3-9,64.0,45.6,34.0,28.0,23.3,18.0,73,45,19,30.31,30.21,4,1,0,0.00
2013-3-10,61.3,45.3,27.3,38.0,25.0,14.0,83,53,16,30.32,30.21,5,1,0,0.00
2013-3-11,58.1,49.8,42.8,48.0,43.3,38.0,92,79,65,30.24,29.95,11,2,0,0.00
2013-3-12,59.8,52.0,42.2,56.0,45.6,29.0,96,80,58,29.95,29.67,12,3,0,0.67
2013-3-13,50.7,40.8,30.1,36.0,25.9,16.0,91,59,27,30.03,29.86,7,1,0,0.02
2013-3-14,42.9,35.0,31.5,20.0,16.2,11.0,56,47,28,30.08,30.00,6,1,0,0.00
2013-3-15,56.6,42.1,26.4,31.0,21.8,16.0,77,48,26,30.07,29.75,11,1,0,0.00
2013-3-16,56.5,44.1,37.3,39.0,34.1,30.0,79,69,50,29.91,29.65,8,1,0,0.00
2013-3-17,41.9,37.9,33.4,32.0,28.6,21.0,88,70,52,30.26,29.91,4,1,0,0.00
2013-3-18,40.2,37.3,35.5,37.0,28.0,18.0,96,71,48,30.32,29.86,10,2,0,0.37
2013-3-19,59.2,46.2,37.9,42.0,31.8,10.0,98,65,20,29.88,29.69,9,1,0,0.00
2013-3-20,52.3,41.8,27.2,26.0,17.5,11.0,76,42,20,29.97,29.75,13,2,0,0.00
2013-3-21,41.8,35.5,29.0,26.0,14.3,6.0,71,43,29,29.87,29.72,12,2,0,0.00
2013-3-22,49.1,36.4,27.8,22.0,15.7,9.0,56,44,29,29.98,29.85,8,2,0,0.00
2013-3-23,53.5,39.6,25.4,25.0,21.2,18.0,77,51,27,30.00,29.89,6,1,0,0.00
2013-3-24,44.1,36.9,27.8,24.0,21.6,20.0,76,55,41,29.98,29.69,4,1,0,0.00
2013-3-25,35.8,34.2,32.2,34.0,32.9,31.0,96,95,94,29.66,29.54,2,0,0,0.37
2013-3-26,51.6,40.5,30.3,35.0,30.3,23.0,96,71,34,29.94,29.67,8,1,0,0.19
2013-3-27,51.9,44.1,38.5,35.0,28.1,24.0,69,54,35,30.07,29.94,10,2,0,0.00
2013-3-28,51.0,42.6,33.4,33.0,28.6,24.0,79,59,39,30.19,30.05,6,1,0,0.00
2013-3-29,56.3,47.0,37.3,32.0,27.9,24.0,66,49,31,30.23,30.12,4,1,0,0.00
2013-3-30,61.2,47.2,34.7,34.0,29.8,26.0,81,55,29,30.21,30.09,6,1,0,0.00
2013-3-31,54.8,46.9,36.8,50.0,41.3,30.0,96,81,59,30.12,29.71,7,1,0,0.02
2013-4-1,66.3,50.4,38.8,49.0,35.6,18.0,100,62,35,29.95,29.68,7,2,0,0.00
2013-4-2,50.8,39.8,27.8,22.0,16.4,11.0,69,41,25,30.15,29.96,6,1,0,0.00
2013-4-3,53.6,39.5,27.6,21.0,15.3,9.0,65,40,21,30.36,30.15,12,1,0,0.00
2013-4-4,51.0,37.6,24.1,35.0,19.0,12.0,83,50,21,30.41,30.09,5,1,0,0.02
2013-4-5,67.3,50.0,38.2,39.0,31.8,18.0,95,59,20,30.09,29.77,4,1,0,0.17
2013-4-6,57.5,46.8,37.8,34.0,21.3,15.0,67,38,23,30.32,30.01,6,1,0,0.00
2013-4-7,64.8,52.1,39.3,45.0,40.0,32.0,85,65,43,30.27,29.97,9,2,0,0.00
2013-4-8,79.8,63.1,46.5,52.0,45.4,41.0,82,56,29,30.05,29.95,7,1,0,0.00
2013-4-9,86.5,73.2,60.5,56.0,51.7,50.0,68,49,29,30.04,29.91,6,1,0,0.00
2013-4-10,91.8,76.6,62.9,57.0,53.5,51.0,68,47,26,29.94,29.75,7,1,0,0.00
2013-4-11,84.3,67.4,53.9,62.0,56.6,51.0,91,71,43,29.89,29.75,9,2,0,0.00
2013-4-12,59.9,54.1,51.4,59.0,52.8,50.0,100,95,88,29.84,29.60,6,2,0,0.70
2013-4-13,67.9,54.7,41.2,51.0,43.0,36.0,100,69,33,29.92,29.74,9,1,0,0.00
2013-4-14,68.1,55.4,40.6,46.0,39.5,32.0,95,61,27,30.12,29.92,9,1,0,0.00
2013-4-15,62.6,56.1,51.9,50.0,47.3,43.0,91,73,57,30.29,30.11,5,1,0,0.02
2013-4-16,73.7,61.0,49.6,57.0,52.3,47.0,92,74,55,30.30,30.10,7,1,0,0.00
2013-4-17,77.0,65.0,56.3,62.0,56.6,53.0,96,76,56,30.22,30.09,5,1,0,0.00
2013-4-18,76.8,63.5,57.3,63.0,56.5,51.0,96,79,53,30.24,30.01,9,2,0,0.11
2013-4-19,76.1,65.6,54.2,64.0,60.3,52.0,94,83,65,30.01,29.59,8,2,0,0.76
2013-4-20,61.3,53.1,47.4,52.0,34.6,25.0,93,53,29,30.31,29.77,15,2,0,0.08
2013-4-21,56.7,47.2,39.9,34.0,26.2,20.0,72,45,33,30.58,30.32,5,1,0,0.00
2013-4-22,57.2,48.2,34.4,40.0,35.6,32.0,89,63,46,30.57,30.41,9,2,0,0.00
2013-4-23,64.7,51.7,44.3,46.0,41.6,38.0,90,70,46,30.41,30.12,7,1,0,0.00
2013-4-24,72.0,57.4,41.3,57.0,49.9,40.0,96,78,57,30.12,29.78,9,1,0,0.00
2013-4-25,66.0,55.0,45.7,55.0,35.9,26.0,78,51,23,30.28,29.93,6,1,0,0.01
2013-4-26,68.1,54.7,40.3,41.0,35.8,31.0,89,54,26,30.43,30.28,5,1,0,0.00
2013-4-27,72.1,55.9,38.9,46.0,37.8,31.0,92,57,22,30.41,30.27,6,1,0,0.00
2013-4-28,69.3,57.1,41.8,46.0,39.3,32.0,93,56,27,30.28,30.15,11,1,0,0.00
2013-4-29,59.6,56.4,53.6,58.0,53.8,40.0,98,92,53,30.16,30.06,7,1,0,0.52
2013-4-30,61.3,56.5,49.5,58.0,54.4,47.0,100,93,78,30.27,30.09,5,1,0,0.26
2013-5-1,71.3,58.5,44.3,48.0,43.9,37.0,94,62,30,30.43,30.29,6,1,0,0.00
2013-5-2,70.3,56.2,43.3,54.0,46.5,42.0,95,72,43,30.43,30.31,4,1,0,0.00
2013-5-3,67.3,54.5,43.5,48.0,43.6,41.0,95,69,45,30.38,30.30,11,2,0,0.00
2013-5-4,70.8,56.0,44.5,50.0,44.7,40.0,89,68,39,30.34,30.18,12,1,0,0.00
2013-5-5,64.7,53.1,44.9,47.0,42.4,38.0,85,68,48,30.25,30.15,7,1,0,0.00
2013-5-6,63.1,55.6,47.0,58.0,51.6,43.0,94,86,78,30.18,30.07,6,1,0,0.02
2013-5-7,63.7,59.4,57.0,63.0,58.5,56.0,98,96,92,30.09,29.93,7,2,0,0.85
2013-5-8,72.3,61.3,56.9,61.0,56.6,54.0,97,86,60,30.00,29.92,6,1,0,0.01
2013-5-9,74.7,62.5,51.3,62.0,55.9,51.0,99,81,52,29.98,29.91,6,1,0,0.00
2013-5-10,83.4,69.1,53.2,65.0,58.1,52.0,98,72,41,30.00,29.86,4,1,0,0.28
2013-5-11,78.8,67.3,63.1,67.0,63.1,59.0,98,88,56,29.93,29.70,4,0,0,0.86
2013-5-12,65.5,59.6,48.3,63.0,43.0,28.0,98,59,28,30.02,29.72,10,2,0,0.02
2013-5-13,60.1,50.8,39.5,36.0,30.3,22.0,86,49,27,30.14,30.01,9,1,0,0.00
2013-5-14,64.5,51.4,35.3,48.0,34.6,27.0,87,57,29,30.20,30.04,5,1,0,0.00
2013-5-15,77.7,63.5,53.9,63.0,53.2,47.0,89,70,50,30.06,29.67,5,1,0,0.01
2013-5-16,83.6,75.0,67.1,63.0,59.5,56.0,78,59,46,29.89,29.72,4,1,0,0.00
2013-5-17,82.4,70.3,55.9,59.0,51.7,43.0,95,56,29,30.15,29.90,5,1,0,0.00
2013-5-18,68.4,63.1,59.2,59.0,54.0,47.0,96,73,52,30.25,30.15,6,1,0,0.01
2013-5-19,70.3,64.5,59.5,65.0,62.4,58.0,98,93,82,30.21,30.10,3,0,0,0.03
2013-5-20,81.8,70.5,62.3,70.0,65.8,62.0,99,86,66,30.12,29.98,5,0,0,0.00
2013-5-21,84.9,72.7,64.7,70.0,67.1,64.0,98,84,59,30.00,29.87,4,1,0,0.01
2013-5-22,87.4,76.0,66.8,73.0,69.4,63.0,98,81,60,29.92,29.83,7,1,0,0.01
2013-5-23,81.1,72.4,65.0,70.0,67.1,62.0,96,84,65,29.90,29.75,4,1,0,0.80
2013-5-24,65.2,57.9,50.5,64.0,50.7,34.0,98,78,54,30.12,29.72,8,2,0,0.04
2013-5-25,67.3,55.9,44.8,44.0,36.2,33.0,68,49,32,30.14,30.04,7,2,0,0.00
2013-5-26,72.7,59.3,47.9,45.0,38.6,34.0,77,49,27,30.19,30.10,5,1,0,0.00
2013-5-27,73.2,59.0,45.1,50.0,42.9,36.0,90,60,29,30.27,30.18,3,1,0,0.00
2013-5-28,76.8,70.6,64.8,67.0,64.2,61.0,96,81,67,30.17,30.07,4,1,0,0.16
2013-5-29,89.0,76.1,66.1,70.0,66.5,63.0,96,74,44,30.12,30.05,6,1,0,0.01
2013-5-30,91.6,79.1,68.1,72.0,67.1,63.0,88,68,43,30.17,30.09,9,1,0,0.00
2013-5-31,92.1,78.0,65.0,69.0,66.5,62.0,96,71,38,30.15,30.01,8,1,0,0.00
2013-6-1,91.6,79.2,67.3,71.0,66.9,63.0,91,68,46,30.04,29.91,5,1,0,0.00
2013-6-2,85.7,77.3,69.1,70.0,67.0,63.0,95,72,54,29.92,29.82,7,1,0,0.26
2013-6-3,79.4,71.2,65.3,71.0,67.8,63.0,96,89,66,29.91,29.81,5,0,0,0.51
2013-6-4,77.7,66.7,56.3,61.0,50.1,43.0,87,58,30,30.12,29.91,4,1,0,0.00
2013-6-5,80.7,67.3,53.3,58.0,53.9,49.0,95,66,37,30.18,30.06,7,1,0,0.00
2013-6-6,74.0,66.7,60.4,65.0,59.4,53.0,95,78,62,30.09,29.88,3,0,0,0.17
2013-6-7,71.8,68.8,66.0,71.0,67.9,65.0,97,97,95,29.87,29.57,3,1,0,3.07
2013-6-8,80.5,70.1,64.0,67.0,64.1,61.0,97,83,56,30.08,29.66,3,0,0,0.01
2013-6-9,81.4,71.8,62.4,70.0,65.1,61.0,96,80,63,30.20,30.08,4,0,0,0.00
2013-6-10,78.6,72.9,69.4,75.0,70.5,66.0,97,92,83,30.10,29.79,4,1,0,1.60
2013-6-11,84.0,75.0,66.9,68.0,65.5,63.0,97,74,53,29.83,29.75,10,2,0,0.01
2013-6-12,87.2,77.1,66.0,71.0,66.6,63.0,91,71,52,29.85,29.78,4,0,0,0.00
2013-6-13,86.3,74.8,69.4,72.0,67.5,58.0,93,79,53,29.81,29.44,9,1,0,0.52
2013-6-14,79.0,68.7,59.2,59.0,55.7,53.0,93,65,43,29.95,29.56,6,1,0,0.12
2013-6-15,83.4,71.1,58.0,61.0,56.6,50.0,93,64,34,30.06,29.95,7,1,0,0.00
2013-6-16,83.8,73.6,62.1,68.0,63.2,59.0,90,71,53,30.02,29.87,7,1,0,0.00
2013-6-17,87.0,76.7,66.9,72.0,67.2,62.0,88,73,51,29.95,29.87,4,0,0,0.00
2013-6-18,78.6,71.0,62.7,72.0,67.3,62.0,96,88,74,29.92,29.78,3,0,0,0.78
2013-6-19,78.3,69.0,62.3,64.0,60.4,55.0,97,76,45,30.15,29.87,5,1,0,0.00
2013-6-20,80.9,69.9,59.3,63.0,58.8,55.0,97,71,43,30.27,30.16,6,1,0,0.00
2013-6-21,81.8,69.5,56.2,64.0,57.6,51.0,95,69,36,30.31,30.23,6,1,0,0.00
2013-6-22,85.5,74.2,61.8,70.0,64.8,61.0,96,74,54,30.26,30.14,6,1,0,0.00
2013-6-23,82.0,73.7,66.1,75.0,69.7,64.0,95,87,76,30.19,30.06,3,0,0,0.17
2013-6-24,92.1,78.4,69.8,75.0,71.0,68.0,96,80,47,30.11,29.98,3,1,0,0.04
2013-6-25,92.3,80.3,67.8,73.0,69.1,62.0,96,72,45,30.04,29.87,6,1,0,0.11
2013-6-26,79.8,69.7,67.3,72.0,67.6,66.0,96,93,74,29.92,29.87,1,0,0,0.00
2013-6-27,78.5,76.5,74.2,72.0,71.0,69.0,85,83,79,29.64,29.59,7,2,0,0.00
2013-6-28,88.6,76.7,70.6,73.0,69.4,67.0,94,80,52,29.62,29.48,6,1,0,0.04
2013-6-29,88.6,77.2,66.0,74.0,68.0,61.0,96,76,41,29.68,29.52,7,1,0,0.00
2013-6-30,85.9,76.8,72.3,75.0,72.8,71.0,95,88,64,29.84,29.68,4,0,0,0.14
2013-7-1,83.8,77.3,72.0,75.0,72.9,70.0,95,86,71,29.99,29.84,6,1,0,0.01
2013-7-2,84.3,77.0,73.2,75.0,72.0,70.0,90,84,71,30.18,29.99,5,1,0,0.06
2013-7-3,85.7,77.8,72.1,78.0,72.8,69.0,92,84,67,30.23,30.16,5,0,0,0.30
2013-7-4,89.5,80.1,73.3,77.0,73.0,71.0,94,80,60,30.25,30.17,6,1,0,0.00
2013-7-5,91.4,81.8,73.7,74.0,72.1,70.0,92,74,54,30.22,30.12,5,1,0,0.00
2013-7-6,94.5,82.8,75.6,75.0,72.2,70.0,88,72,47,30.18,30.05,5,1,0,0.00
2013-7-7,93.8,80.9,71.6,76.0,71.3,68.0,89,74,50,30.10,29.98,6,1,0,0.04
2013-7-8,87.0,76.5,70.4,71.0,69.0,65.0,94,79,50,30.09,30.02,5,1,0,0.02
2013-7-9,84.9,78.3,71.8,75.0,71.3,69.0,91,79,62,30.10,29.99,6,0,0,0.00
2013-7-10,91.0,80.1,73.3,76.0,73.4,71.0,91,81,60,30.01,29.84,7,1,0,0.04
2013-7-11,86.3,77.1,72.0,73.0,70.7,67.0,94,81,56,29.92,29.82,4,0,0,0.23
2013-7-12,74.4,71.1,68.4,71.0,67.9,64.0,94,90,73,29.99,29.87,5,1,0,0.99
2013-7-13,90.7,77.6,67.6,75.0,70.6,66.0,94,80,55,30.27,30.00,4,1,0,0.04
2013-7-14,88.8,79.5,72.7,78.0,72.9,70.0,94,81,62,30.34,30.27,6,1,0,0.01
2013-7-15,95.4,81.9,70.9,75.0,72.1,70.0,96,75,44,30.30,30.17,2,0,0,0.00
2013-7-16,95.6,84.7,76.8,74.0,70.9,68.0,86,66,41,30.22,30.15,5,0,0,0.00
2013-7-17,96.6,83.5,72.0,76.0,72.1,69.0,93,71,44,30.20,30.08,5,0,0,0.00
2013-7-18,97.3,83.7,74.6,82.0,75.9,72.0,93,79,51,30.10,29.98,6,0,0,0.52
2013-7-19,96.3,85.7,77.2,79.0,75.0,71.0,96,72,51,29.99,29.86,5,1,0,0.00
2013-7-20,94.0,83.0,75.3,76.0,72.9,70.0,90,73,46,29.88,29.77,7,1,0,0.00
2013-7-21,91.0,78.4,72.0,76.0,71.8,69.0,94,81,53,29.93,29.86,4,0,0,0.11
2013-7-22,89.9,80.2,72.8,76.0,73.5,71.0,95,81,60,29.92,29.75,4,1,0,0.00
2013-7-23,88.2,78.2,72.7,75.0,70.9,67.0,96,80,55,29.76,29.63,4,1,0,0.35
2013-7-24,85.5,76.4,68.8,70.0,66.1,57.0,93,72,54,29.90,29.67,3,0,0,0.00
2013-7-25,80.9,70.4,63.4,65.0,58.8,53.0,83,67,58,30.02,29.91,5,1,0,0.00
2013-7-26,84.1,74.0,66.8,65.0,62.3,60.0,84,68,50,30.09,30.01,5,1,0,0.00
2013-7-27,85.7,74.7,65.0,71.0,67.0,62.0,95,78,55,30.05,29.92,6,1,0,0.00
2013-7-28,86.7,77.1,71.5,73.0,68.9,65.0,90,76,55,29.96,29.87,6,1,0,0.00
2013-7-29,86.7,73.4,62.9,70.0,57.2,49.0,90,61,28,30.15,29.96,5,1,0,0.00
2013-7-30,84.7,71.6,58.4,62.0,57.8,54.0,92,66,36,30.22,30.13,5,0,0,0.00
2013-7-31,83.2,73.0,63.4,68.0,64.4,61.0,94,76,54,30.15,30.02,3,0,0,0.00
2013-8-1,82.2,73.5,68.3,73.0,69.7,66.0,96,88,68,30.01,29.80,4,0,0,0.44
2013-8-2,87.8,75.9,64.8,69.0,65.8,62.0,96,74,43,29.95,29.84,6,1,0,0.00
2013-8-3,77.6,70.4,66.3,70.0,65.7,63.0,94,85,69,29.96,29.90,4,0,0,0.03
2013-8-4,85.3,71.7,60.9,64.0,58.1,50.0,95,66,37,30.01,29.89,4,0,0,0.00
2013-8-5,83.8,68.8,57.2,61.0,57.1,55.0,91,69,42,30.10,30.01,5,0,0,0.00
2013-8-6,74.7,69.2,63.4,67.0,64.2,60.0,90,84,75,30.08,30.01,4,0,0,0.02
2013-8-7,82.8,75.0,69.4,73.0,69.4,66.0,92,83,68,30.08,30.00,5,1,0,0.00
2013-8-8,90.1,78.6,71.6,75.0,72.1,69.0,94,81,58,30.04,29.98,6,1,0,0.28
2013-8-9,89.5,80.8,76.0,78.0,73.7,70.0,94,80,56,29.97,29.83,5,1,0,0.21
2013-8-10,85.3,77.4,71.5,71.0,66.6,61.0,91,71,48,30.05,29.92,5,0,0,0.00
2013-8-11,86.3,75.9,67.1,72.0,67.7,65.0,94,77,56,30.12,30.01,4,1,0,0.00
2013-8-12,87.2,75.8,68.9,74.0,69.7,67.0,95,82,61,30.02,29.91,4,0,0,0.00
2013-8-13,86.1,77.5,72.3,73.0,70.7,67.0,92,80,55,29.90,29.73,4,0,0,0.41
2013-8-14,78.5,68.6,58.6,66.0,53.1,46.0,86,59,42,30.09,29.79,5,1,0,0.00
2013-8-15,86.1,66.9,53.9,57.0,52.7,49.0,93,66,29,30.18,30.09,7,0,0,0.00
2013-8-16,86.1,68.7,54.1,61.0,55.2,51.0,94,67,30,30.19,30.13,4,0,0,0.00
2013-8-17,85.5,58.5,56.7,67.0,44.1,-99.9,94,75,46,30.27,30.19,11,1,0,0.03
2013-9-17,54.0,51.5,50.1,48.0,46.3,46.0,89,82,73,30.37,30.34,0,0,0,0.00
2013-9-18,85.5,60.4,44.9,54.0,47.8,40.0,96,70,25,30.36,30.20,1,0,7,0.07
2013-9-19,78.4,62.1,47.0,59.0,53.7,46.0,97,77,47,30.22,30.09,4,0,10,0.00
2013-9-20,81.3,65.6,51.8,61.0,57.6,51.0,97,78,49,30.11,29.98,5,0,12,0.00
2013-9-21,78.9,67.4,58.2,68.0,62.4,57.0,97,85,59,30.00,29.70,9,1,13,0.95
2013-9-22,75.3,65.0,56.4,63.0,55.9,48.0,98,75,49,29.94,29.72,5,0,8,0.01
2013-9-23,71.0,59.6,49.4,49.0,46.1,42.0,93,63,40,30.09,29.94,4,0,10,0.00
2013-9-24,76.1,57.9,44.7,51.0,46.8,44.0,96,72,33,30.11,29.94,3,0,9,0.00
2013-9-25,76.6,59.2,46.6,55.0,50.2,46.0,97,76,36,29.99,29.89,2,0,5,0.00
2013-9-26,77.6,62.5,53.5,59.0,54.3,48.0,97,78,38,30.08,29.93,4,0,8,0.00
2013-9-27,75.5,62.8,54.3,62.0,56.6,53.0,96,82,54,30.26,30.08,4,0,8,0.00
2013-9-28,75.6,63.2,55.0,61.0,55.5,53.0,95,78,49,30.32,30.23,5,0,8,0.00
2013-9-29,75.4,60.6,50.1,61.0,54.6,49.0,98,83,50,30.23,30.08,4,0,7,0.00
2013-9-30,77.3,60.9,49.7,59.0,54.0,49.0,97,80,49,30.10,30.00,2,0,7,0.06
2013-10-1,80.7,65.7,52.4,65.0,59.3,51.0,97,82,54,30.07,29.97,3,0,5,0.04
2013-10-2,86.9,70.8,57.6,67.0,61.0,56.0,96,74,42,30.09,30.00,5,0,8,0.01
2013-10-3,82.4,69.6,59.1,70.0,63.9,58.0,96,83,61,30.13,30.05,3,0,5,0.01
2013-10-4,87.2,71.5,59.6,70.0,65.5,59.0,98,83,53,30.09,30.01,3,0,6,0.00
2013-10-5,88.7,74.4,63.9,71.0,66.6,63.0,97,79,51,30.09,30.01,6,0,7,0.00
2013-10-6,87.2,74.5,63.9,73.0,68.1,63.0,98,82,54,30.04,29.95,5,1,16,0.00
2013-10-7,76.1,67.3,54.4,73.0,65.0,50.0,97,92,82,30.05,29.80,5,1,13,0.72
2013-10-8,66.8,57.4,48.0,52.0,49.2,47.0,97,76,54,30.29,30.05,4,0,8,0.01
2013-10-9,61.5,58.1,55.4,54.0,51.9,49.0,90,80,72,30.32,30.22,6,1,12,0.07
2013-10-10,58.6,56.5,54.3,58.0,55.7,53.0,98,96,89,30.21,29.98,8,1,10,2.45
2013-10-11,64.7,61.4,58.6,63.0,60.9,58.0,99,98,94,30.00,29.93,7,1,10,1.58
2013-10-12,67.7,63.7,61.2,63.0,60.5,58.0,98,90,73,30.17,29.99,7,1,11,0.85
2013-10-13,66.3,60.9,56.8,60.0,58.0,54.0,97,90,78,30.34,30.17,5,1,11,0.06
2013-10-14,69.6,60.0,52.1,59.0,55.0,51.0,97,84,65,30.35,30.25,3,0,8,0.00
2013-10-15,71.5,58.4,47.4,57.0,51.6,46.0,99,81,42,30.26,30.10,4,0,7,0.00
2013-10-16,68.2,62.7,59.7,63.0,60.1,57.0,98,91,84,30.09,29.93,2,0,5,0.00
2013-10-17,75.6,65.8,58.1,68.0,62.7,58.0,99,90,72,29.93,29.74,5,0,12,0.02
2013-10-18,67.8,57.9,48.2,60.0,47.5,44.0,95,71,43,30.02,29.81,3,0,13,0.02
2013-10-19,66.1,55.6,44.2,59.0,51.0,43.0,98,86,56,30.01,29.79,5,0,10,0.01
2013-10-20,64.7,53.7,44.2,49.0,41.1,38.0,94,65,38,30.10,29.86,6,1,15,0.00
2013-10-21,67.8,52.4,38.5,49.0,43.9,38.0,97,76,40,30.16,29.98,3,0,9,0.00
2013-10-22,64.1,55.1,45.8,54.0,48.5,44.0,96,79,60,29.98,29.82,4,0,6,0.00
2013-10-23,59.3,50.8,44.8,46.0,39.7,35.0,94,67,48,29.87,29.65,4,0,10,0.02
2013-10-24,53.9,44.7,37.1,38.0,32.3,26.0,90,64,38,30.13,29.88,5,1,14,0.00
2013-10-25,57.8,44.2,32.8,39.0,32.9,30.0,91,67,42,30.32,30.13,4,0,9,0.00
2013-10-26,58.5,44.7,29.9,35.0,31.3,28.0,94,64,36,30.30,29.94,8,1,15,0.00
2013-10-27,61.6,48.8,37.7,39.0,36.2,33.0,93,65,39,30.16,29.94,6,0,11,0.00
2013-10-28,65.2,46.8,34.2,49.0,40.9,33.0,96,82,49,30.29,30.15,3,0,5,0.00
2013-10-29,64.3,48.1,37.1,48.0,42.5,36.0,97,83,46,30.39,30.28,3,0,6,0.00
2013-10-30,64.1,53.5,46.5,58.0,51.6,46.0,98,93,78,30.34,30.16,1,0,7,0.09
2013-10-31,67.6,60.6,51.2,62.0,58.0,51.0,99,91,81,30.20,29.80,4,0,9,0.01
2013-11-1,73.2,65.7,54.7,65.0,61.2,54.0,98,86,62,29.79,29.60,4,1,15,0.16
2013-11-2,69.7,57.0,46.3,55.0,48.2,40.0,99,75,46,29.87,29.64,3,0,9,0.01
2013-11-3,58.3,48.7,40.1,44.0,34.5,24.0,88,61,33,30.46,29.87,5,1,11,0.00
2013-11-4,48.5,39.5,34.0,31.0,25.8,21.0,84,60,35,30.64,30.48,3,0,9,0.00
2013-11-5,58.8,48.9,35.6,48.0,42.3,31.0,89,78,62,30.62,30.48,3,0,5,0.00
2013-11-6,67.8,56.6,44.7,53.0,50.2,44.0,96,80,58,30.48,30.08,5,0,13,0.00
2013-11-7,62.2,54.3,44.5,58.0,48.3,26.0,97,81,48,30.07,29.87,5,1,13,0.04
2013-11-8,52.8,41.8,31.8,34.0,28.2,25.0,88,61,38,30.31,30.08,7,1,14,0.00
2013-11-9,56.1,42.3,27.9,33.0,29.2,26.0,92,63,36,30.36,30.03,5,0,9,0.00
2013-11-10,64.9,50.5,40.0,38.0,31.6,28.0,73,50,29,30.21,29.94,10,1,18,0.00
2013-11-11,57.8,47.2,32.3,39.0,31.9,28.0,87,58,36,30.31,30.00,8,1,10,0.00
2013-11-12,53.2,41.4,27.8,39.0,25.0,15.0,69,53,40,30.39,29.98,7,1,12,0.00
2013-11-13,46.8,33.9,25.5,23.0,20.4,16.0,80,60,38,30.47,30.39,4,0,10,0.00
2013-11-14,59.3,38.7,24.4,33.0,23.9,14.0,87,62,17,30.39,30.23,5,0,11,0.00
2013-11-15,60.3,42.0,27.7,43.0,31.6,24.0,92,70,33,30.29,30.19,4,0,8,0.00
2013-11-16,52.0,48.8,44.8,50.0,47.1,42.0,98,94,87,30.33,30.24,2,0,5,0.16
2013-11-17,64.9,56.1,50.2,59.0,54.2,50.0,99,93,79,30.24,29.74,5,0,9,0.03
2013-11-18,69.7,59.8,50.3,64.0,40.4,25.0,98,56,22,29.91,29.68,8,1,20,0.12
2013-11-19,51.9,45.3,38.9,29.0,27.3,24.0,63,50,41,30.37,29.91,5,1,12,0.00
2013-11-20,45.2,37.3,28.7,29.0,25.7,23.0,88,64,47,30.58,30.36,4,0,8,0.00
2013-11-21,47.9,39.9,27.8,41.0,34.2,26.0,92,81,68,30.58,30.39,1,0,4,0.00
2013-11-22,60.5,52.5,45.7,53.0,48.0,41.0,94,84,72,30.39,29.99,3,0,11,0.00
2013-11-23,57.1,45.0,32.8,51.0,28.7,12.0,79,54,32,30.17,30.00,11,1,15,0.00
2013-11-24,33.7,28.5,24.0,13.0,9.4,7.0,60,45,35,30.52,30.18,7,2,17,0.00
2013-11-25,37.4,29.0,20.6,16.0,12.2,10.0,67,51,33,30.58,30.36,4,0,12,0.00
2013-11-26,56.6,38.0,33.9,56.0,30.3,15.0,99,77,44,30.36,29.55,4,0,8,0.98
2013-11-27,57.7,39.5,30.7,58.0,35.9,19.0,99,87,59,30.00,29.48,7,1,17,0.96
2013-11-28,39.3,31.7,26.6,26.0,18.5,14.0,82,60,39,30.49,30.01,5,1,11,0.00
2013-11-29,43.9,32.9,22.9,26.0,22.6,21.0,92,68,44,30.73,30.48,4,0,8,0.00
2013-11-30,37.9,30.9,23.3,27.0,23.7,20.0,88,75,60,30.73,30.39,3,0,7,0.00
2013-12-1,47.3,35.6,23.9,35.0,29.6,22.0,94,80,54,30.39,30.02,2,0,5,0.00
2013-12-2,47.8,41.5,38.5,40.0,37.1,35.0,94,84,65,30.02,29.88,2,0,5,0.00
2013-12-3,56.1,43.1,34.1,39.0,35.9,32.0,93,78,49,30.00,29.88,2,0,5,0.00
2013-12-4,51.8,44.8,35.0,47.0,41.5,33.0,96,88,80,30.09,29.99,1,0,4,0.00
2013-12-5,62.3,55.3,48.6,61.0,53.2,47.0,98,93,84,30.08,29.92,4,0,7,0.00
2013-12-6,65.6,50.7,38.2,63.0,49.5,37.0,98,96,90,30.18,29.88,4,0,9,0.65
2013-12-7,43.9,38.1,31.5,37.0,32.1,23.0,96,80,63,30.55,30.13,4,0,10,0.18
2013-12-8,32.7,30.6,28.8,32.0,26.0,22.0,97,83,68,30.60,30.30,4,0,8,0.12
2013-12-9,36.6,34.3,32.4,35.0,33.5,32.0,98,97,95,30.30,30.04,2,0,4,0.89
2013-12-10,36.5,33.4,30.5,35.0,30.3,20.0,99,89,62,30.22,29.99,5,0,7,0.16
2013-12-11,40.3,30.8,23.3,24.0,20.8,18.0,92,68,43,30.41,30.22,5,0,7,0.13
2013-12-12,32.2,26.6,21.1,23.0,15.9,10.0,92,65,42,30.43,30.25,4,0,9,0.02
2013-12-13,42.4,31.9,22.0,26.0,18.9,14.0,81,61,37,30.33,30.22,9,0,11,0.04
2013-12-14,38.7,35.4,30.1,38.0,31.7,25.0,98,87,72,30.34,29.69,3,0,10,0.82
2013-12-15,40.0,35.4,33.6,36.0,29.8,24.0,98,82,60,29.94,29.61,5,0,11,0.00
2013-12-16,37.4,33.9,30.7,27.0,23.8,19.0,77,67,59,30.20,29.93,4,0,9,0.00
2013-12-17,36.2,33.9,31.3,30.0,27.9,25.0,86,78,73,30.18,29.95,4,0,7,0.00
2013-12-18,41.3,32.4,25.1,28.0,24.2,20.0,93,74,46,30.23,29.98,4,0,13,0.00
2013-12-19,59.1,38.8,23.3,34.0,27.8,22.0,94,69,32,30.21,30.07,6,0,7,0.00
2013-12-20,59.8,51.6,37.5,50.0,35.9,29.0,73,56,37,30.10,29.99,6,0,13,0.00
2013-12-21,72.5,61.8,55.3,57.0,51.7,45.0,90,70,54,30.01,29.89,5,1,16,0.00
2013-12-22,71.4,62.8,57.4,64.0,60.2,55.0,97,91,78,30.02,29.83,7,1,15,0.35
2013-12-23,63.0,54.7,39.7,61.0,51.8,32.0,99,90,69,30.23,29.93,4,0,12,0.69
2013-12-24,42.2,34.7,24.7,31.0,22.5,9.0,82,62,45,30.46,30.19,7,1,21,0.00
2013-12-25,32.7,24.6,19.3,19.0,14.7,12.0,90,67,48,30.58,30.40,4,0,7,0.00
2013-12-26,44.2,30.6,20.5,27.0,23.4,18.0,92,77,47,30.40,30.22,4,0,9,0.00
2013-12-27,49.4,34.2,23.5,27.0,22.7,19.0,88,67,30,30.43,30.31,5,0,11,0.00
2013-12-28,58.8,40.4,27.3,32.0,26.8,23.0,85,63,29,30.33,30.11,4,0,8,0.00
2013-12-29,47.4,43.4,38.4,47.0,40.3,31.0,98,89,56,30.11,29.52,4,0,13,1.08
2013-12-30,46.3,38.3,32.7,41.0,31.9,22.0,98,79,62,30.19,29.81,4,0,10,0.01
2013-12-31,45.4,34.2,26.5,30.0,22.2,18.0,78,62,43,30.34,30.10,7,1,16,0.00
2014-1-1,44.3,33.3,24.0,33.0,26.3,20.0,95,77,54,30.43,30.14,6,0,10,0.00
2014-1-2,36.6,32.5,27.8,34.0,31.1,27.0,97,94,89,30.14,29.61,6,0,8,0.00